GW1009 Weather Reports


Display with metric or nautical units.
time (UTC)temp
F
wind
direction
speed
MPH
gust
MPH
rain 1hr
in
rain 24hr
in
rain mn
in
humidity
%
barometer
mb
20260504050545 46 360 3.0 8.0 0.00 0.00 0.00 59 1008.5
20260504045542 46 360 3.0 6.0 0.00 0.00 0.00 62 1008.6
20260504045041 45 360 2.0 5.0 0.00 0.00 0.00 64 1008.6
20260504044545 45 360 2.0 5.0 0.00 0.00 0.00 66 1008.6
20260504044039 45 360 1.0 4.0 0.00 0.00 0.00 66 1008.7
20260504043537 45 360 0.0 6.0 0.00 0.00 0.00 68 1008.8
20260504043037 44 360 2.0 6.0 0.00 0.00 0.00 70 1008.8
20260504042535 44 360 1.0 4.0 0.00 0.00 0.00 72 1008.9
20260504042035 44 360 0.0 4.0 0.00 0.00 0.00 73 1008.9
20260504041533 44 360 0.0 4.0 0.00 0.00 0.00 76 1008.9
20260504041034 43 360 0.0 4.0 0.00 0.00 0.00 76 1008.9
20260504040532 43 360 2.0 4.0 0.00 0.00 0.00 76 1008.9
20260504040042 43 360 2.0 4.0 0.00 0.00 0.00 77 1008.9
20260504035530 44 360 0.0 2.0 0.00 0.00 0.00 77 1009.0
20260504035031 44 360 0.0 0.0 0.00 0.00 0.00 76 1009.0
20260504034531 43 360 0.0 0.0 0.00 0.00 0.00 75 1009.2
20260504034029 43 360 0.0 0.0 0.00 0.00 0.00 75 1009.3
20260504033529 44 360 0.0 0.0 0.00 0.00 0.00 75 1009.4
20260504033029 44 360 0.0 0.0 0.00 0.00 0.00 75 1009.4
20260504032529 44 360 0.0 0.0 0.00 0.00 0.00 75 1009.4
20260504032029 44 360 0.0 4.0 0.00 0.00 0.00 74 1009.5
20260504031531 44 360 0.0 8.0 0.00 0.00 0.00 74 1009.5
20260504031029 44 360 3.0 8.0 0.00 0.00 0.00 73 1009.7
20260504030528 44 360 4.0 8.0 0.00 0.00 0.00 73 1009.6
20260504030028 44 360 4.0 11.0 0.00 0.00 0.00 72 1009.7
20260504025528 45 360 4.0 13.0 0.00 0.00 0.00 70 1009.8
20260504025128 45 360 7.0 13.0 0.00 0.00 0.00 67 1009.9
20260504024527 46 360 6.0 13.0 0.00 0.00 0.00 65 1009.8
20260504024027 46 360 5.0 16.0 0.00 0.00 0.00 63 1009.7
20260504023527 46 360 6.0 15.0 0.00 0.00 0.00 62 1009.6
20260504023027 46 360 4.0 22.0 0.00 0.00 0.00 60 1009.6
20260504022527 45 360 5.0 13.0 0.00 0.00 0.00 59 1009.6
20260504022025 45 360 0.0 4.0 0.00 0.00 0.00 58 1009.6
20260504021527 45 360 1.0 4.0 0.00 0.00 0.00 58 1009.6
20260504021024 45 360 0.0 2.0 0.00 0.00 0.00 58 1009.6
20260504020524 45 360 0.0 1.0 0.00 0.00 0.00 57 1009.5
20260504020026 46 360 0.0 3.0 0.00 0.00 0.00 57 1009.6
20260504015524 46 360 0.0 3.0 0.00 0.00 0.00 56 1009.6
20260504015024 46 360 0.0 3.0 0.00 0.00 0.00 56 1009.5
20260504014524 45 360 0.0 4.0 0.00 0.00 0.00 56 1009.5
20260504014023 45 360 0.0 5.0 0.00 0.00 0.00 56 1009.4
20260504013523 45 360 0.0 4.0 0.00 0.00 0.00 56 1009.4
20260504013030 45 360 1.0 6.0 0.00 0.00 0.00 55 1009.3
20260504012525 45 360 1.0 6.0 0.00 0.00 0.00 55 1009.4
20260504012024 46 360 2.0 6.0 0.00 0.00 0.00 55 1009.5
20260504011523 46 360 2.0 8.0 0.00 0.00 0.00 54 1009.6
20260504011022 46 360 2.0 10.0 0.00 0.00 0.00 53 1009.4
20260504010522 46 360 3.0 10.0 0.00 0.00 0.00 53 1009.5
20260504010022 46 360 1.0 6.0 0.00 0.00 0.00 52 1009.5
20260504005522 46 360 3.0 10.0 0.00 0.00 0.00 51 1009.4
20260504005022 47 360 5.0 10.0 0.00 0.00 0.00 51 1009.4
20260504004522 47 360 4.0 12.0 0.00 0.00 0.00 50 1009.5
20260504004021 46 360 6.0 12.0 0.00 0.00 0.00 51 1009.5
20260504003521 46 360 8.0 13.0 0.00 0.00 0.00 51 1009.6
20260504003022 45 360 7.0 13.0 0.00 0.00 0.00 52 1009.6
20260504002521 45 360 2.0 5.0 0.00 0.00 0.00 53 1009.6
20260504002021 45 360 2.0 5.0 0.00 0.00 0.00 52 1009.4
20260504001521 46 360 2.0 4.0 0.00 0.00 0.00 52 1009.4
20260504001020 46 360 2.0 8.0 0.00 0.00 0.00 51 1009.3
20260504000522 46 360 2.0 8.0 0.00 0.00 0.00 51 1009.3
20260504000020 46 360 3.0 11.0 0.00 0.00 0.00 50 1009.3
20260503235520 46 360 4.0 11.0 0.00 0.00 0.00 51 1009.3
20260503235020 47 360 4.0 8.0 0.00 0.00 0.00 49 1009.2
20260503234520 47 360 3.0 12.0 0.00 0.00 0.00 49 1009.2
20260503234020 47 360 4.0 12.0 0.00 0.00 0.00 49 1009.1
20260503233520 47 360 5.0 9.0 0.00 0.00 0.00 49 1009.1
20260503233019 48 360 2.0 6.0 0.00 0.00 0.00 48 1008.9
20260503232520 48 360 1.0 6.0 0.00 0.00 0.00 47 1008.9
20260503232019 48 360 3.0 11.0 0.00 0.00 0.00 48 1009.0
20260503231521 48 360 4.0 11.0 0.00 0.00 0.00 47 1009.0
20260503231019 48 360 6.0 12.0 0.00 0.00 0.00 46 1009.0
20260503230520 48 360 5.0 13.0 0.00 0.00 0.00 47 1009.1
20260503230018 48 360 4.0 14.0 0.00 0.00 0.00 48 1009.1
20260503225518 48 360 5.0 14.0 0.00 0.00 0.00 46 1009.1
20260503225018 48 360 3.0 14.0 0.00 0.00 0.00 47 1009.0
20260503224518 48 360 4.0 16.0 0.00 0.00 0.00 46 1009.0
20260503224019 48 360 3.0 16.0 0.00 0.00 0.00 46 1009.0
20260503223519 48 360 5.0 12.0 0.00 0.00 0.00 46 1008.9
20260503223018 48 360 4.0 15.0 0.00 0.00 0.00 46 1008.9
20260503222518 48 360 7.0 15.0 0.00 0.00 0.00 44 1008.9
20260503222017 48 360 5.0 13.0 0.00 0.00 0.00 44 1009.0
20260503221517 48 360 8.0 14.0 0.00 0.00 0.00 44 1009.0
20260503221017 48 360 8.0 16.0 0.00 0.00 0.00 44 1008.9
20260503220517 48 360 8.0 20.0 0.00 0.00 0.00 44 1009.0
20260503220016 48 360 8.0 20.0 0.00 0.00 0.00 44 1009.0
20260503215516 48 360 10.0 17.0 0.00 0.00 0.00 43 1009.0
20260503215018 48 360 9.0 14.0 0.00 0.00 0.00 42 1009.0
20260503214515 48 360 6.0 16.0 0.00 0.00 0.00 41 1009.0
20260503214015 48 360 8.0 18.0 0.00 0.00 0.00 42 1008.9
20260503213515 48 360 11.0 18.0 0.00 0.00 0.00 41 1008.8
20260503213016 48 360 9.0 18.0 0.00 0.00 0.00 41 1008.9
20260503212515 48 360 8.0 19.0 0.00 0.00 0.00 41 1008.9
20260503212016 48 360 9.0 19.0 0.00 0.00 0.00 40 1009.0
20260503211515 49 360 11.0 23.0 0.00 0.00 0.00 39 1008.7
20260503211015 49 360 11.0 23.0 0.00 0.00 0.00 38 1008.7
20260503210516 48 360 9.0 18.0 0.00 0.00 0.00 38 1008.8
20260503210016 48 360 10.0 22.0 0.00 0.00 0.00 37 1008.9
20260503205514 48 360 13.0 22.0 0.00 0.00 0.00 37 1008.8
20260503205015 48 360 12.0 22.0 0.00 0.00 0.00 36 1008.8
20260503204514 48 360 11.0 19.0 0.00 0.00 0.00 36 1008.7
20260503204013 48 360 10.0 17.0 0.00 0.00 0.00 35 1008.9
20260503203514 48 360 7.0 17.0 0.00 0.00 0.00 35 1008.9
20260503203013 49 360 9.0 15.0 0.00 0.00 0.00 34 1008.9
20260503202512 48 360 7.0 19.0 0.00 0.00 0.00 34 1008.9
20260503202012 48 360 7.0 21.0 0.00 0.00 0.00 33 1009.0
20260503201511 48 360 14.0 21.0 0.00 0.00 0.00 34 1008.8
20260503201011 49 360 7.0 17.0 0.00 0.00 0.00 33 1008.9
20260503200510 49 360 10.0 17.0 0.00 0.00 0.00 33 1008.9
20260503200010 49 360 7.0 17.0 0.00 0.00 0.00 31 1009.0
20260503195509 49 360 7.0 18.0 0.00 0.00 0.00 32 1009.1
20260503195011 49 360 11.0 20.0 0.00 0.00 0.00 31 1009.2
20260503194509 49 360 8.0 25.0 0.00 0.00 0.00 32 1009.2
20260503194008 48 360 11.0 25.0 0.00 0.00 0.00 32 1009.3
20260503193508 48 360 13.0 21.0 0.00 0.00 0.00 30 1009.2
20260503193007 48 360 9.0 18.0 0.00 0.00 0.00 31 1009.4
20260503192506 48 360 13.0 23.0 0.00 0.00 0.00 31 1009.5
20260503192007 49 360 13.0 23.0 0.00 0.00 0.00 34 1009.5
20260503191506 49 360 10.0 20.0 0.00 0.00 0.00 34 1009.4
20260503191004 49 360 8.0 20.0 0.00 0.00 0.00 35 1009.6
20260503190504 48 360 11.0 20.0 0.00 0.00 0.00 34 1009.6
20260503190005 48 360 9.0 19.0 0.00 0.00 0.00 36 1009.8
20260503185504 48 360 11.0 19.0 0.00 0.00 0.00 37 1009.8
20260503185003 48 360 11.0 25.0 0.00 0.00 0.00 36 1009.9
20260503184506 48 360 9.0 25.0 0.00 0.00 0.00 35 1010.0
20260503184100 48 360 7.0 20.0 0.00 0.00 0.00 35 1010.1
20260503183559 48 360 12.0 20.0 0.00 0.00 0.00 39 1010.1
20260503183109 48 360 8.0 19.0 0.00 0.00 0.00 36 1010.2
20260503182557 47 360 9.0 21.0 0.00 0.00 0.00 35 1010.3
20260503182057 47 360 10.0 21.0 0.00 0.00 0.00 37 1010.2
20260503181558 47 360 11.0 21.0 0.00 0.00 0.00 36 1010.3
20260503181056 47 360 12.0 21.0 0.00 0.00 0.00 37 1010.4
20260503180557 47 360 9.0 21.0 0.00 0.00 0.00 38 1010.3
20260503180058 47 360 10.0 21.0 0.00 0.00 0.00 34 1010.4
20260503175553 47 360 13.0 20.0 0.00 0.00 0.00 36 1010.4
20260503175052 47 360 9.0 18.0 0.00 0.00 0.00 37 1010.5
20260503174551 47 360 6.0 18.0 0.00 0.00 0.00 41 1010.5
20260503174053 46 360 4.0 22.0 0.00 0.00 0.00 40 1010.6
20260503173552 45 360 13.0 23.0 0.00 0.00 0.00 37 1010.6
20260503173109 45 360 15.0 23.0 0.00 0.00 0.00 35 1010.5
20260503172549 46 360 11.0 24.0 0.00 0.00 0.00 37 1010.7
20260503172051 45 360 14.0 24.0 0.00 0.00 0.00 37 1010.6
20260503171552 45 360 12.0 20.0 0.00 0.00 0.00 36 1010.6
20260503171048 45 360 7.0 24.0 0.00 0.00 0.00 38 1010.6
20260503170548 45 360 13.0 24.0 0.00 0.00 0.00 39 1010.5
20260503150538 40 360 8.0 19.0 0.00 0.00 0.00 47 1011.5
20260503131025 40 360 10.0 19.0 0.00 0.00 0.00 57 1011.8
20260503130523 39 360 9.0 19.0 0.00 0.00 0.00 59 1011.9
20260503110555 35 360 6.0 12.0 0.00 0.00 0.00 72 1011.2
20260503081539 33 360 0.0 2.0 0.00 0.00 0.00 81 1010.9
20260503081029 33 360 0.0 3.0 0.00 0.00 0.00 81 1010.9
20260503080530 33 360 0.0 3.0 0.00 0.00 0.00 81 1010.9
20260503072527 33 360 0.0 2.0 0.00 0.00 0.00 81 1011.0
20260503072025 33 360 0.0 2.0 0.00 0.00 0.00 81 1011.0
20260503071525 33 360 0.0 3.0 0.00 0.00 0.00 81 1011.0
20260503071025 33 360 0.0 5.0 0.00 0.00 0.00 81 1011.0
20260503070523 33 360 0.0 3.0 0.00 0.00 0.00 81 1011.0